EW0349 Weather Reports


time (UTC)temp
F
wind
direction
speed
knots
gust
knots
rain 1hr
in
rain 24hr
in
rain mn
in
humidity
%
barometer
mb
20260902163046 58 175 0.9 2.6 0.01 0.01 0.01 32 1006.6
20260902161546 59 198 0.0 3.5 0.00 0.00 0.00 36 1006.4
20260902160059 59 179 0.0 1.7 0.00 0.00 0.00 39 1006.3
20260902154546 59 178 0.0 1.7 0.00 0.00 0.00 41 1006.4
20260902153043 59 196 0.9 3.5 0.00 0.00 0.00 44 1006.7
20260902151540 59 210 0.0 3.5 0.00 0.00 0.00 44 1006.8
20260902150036 58 198 0.9 3.5 0.00 0.00 0.00 38 1006.9
20260902144534 57 170 0.0 0.9 0.00 0.00 0.00 27 1007.0
20260902143038 57 170 0.0 0.0 0.00 0.00 0.00 25 1007.1
20260902141538 57 170 0.0 0.9 0.00 0.00 0.00 27 1007.1
20260902140033 57 170 0.0 0.0 0.00 0.00 0.00 27 1007.2
20260902134531 57 170 0.0 0.0 0.00 0.00 0.00 28 1007.3
20260902133035 57 170 0.0 0.0 0.00 0.00 0.00 31 1007.7
20260902131527 57 170 0.0 0.0 0.00 0.00 0.00 31 1007.8
20260902130024 57 170 0.0 1.7 0.00 0.00 0.00 34 1008.1
20260902124526 57 170 0.0 0.0 0.00 0.00 0.00 35 1008.3
20260902123022 57 170 0.0 0.9 0.00 0.00 0.00 39 1008.5
20260902121520 58 170 0.0 0.0 0.00 0.00 0.00 43 1008.7
20260902120022 58 170 0.0 0.0 0.00 0.00 0.00 45 1008.8
20260902114525 58 170 0.0 2.6 0.00 0.00 0.00 44 1009.0
20260902113015 58 142 0.0 0.9 0.00 0.00 0.00 43 1009.3
20260902111514 58 142 0.0 1.7 0.00 0.00 0.00 41 1009.5
20260902110012 57 135 0.0 3.5 0.00 0.00 0.00 36 1009.6
20260902104517 56 253 0.0 2.6 0.00 0.00 0.00 26 1009.8
20260902103008 56 234 0.0 0.0 0.00 0.00 0.00 22 1010.1
20260902101508 56 234 0.0 0.0 0.00 0.00 0.00 24 1010.1
20260902100005 55 234 0.0 0.0 0.00 0.00 0.00 24 1010.2
20260902094503 55 234 0.0 0.0 0.00 0.00 0.00 26 1010.3
20260902093000 55 234 0.0 0.0 0.00 0.00 0.00 29 1010.4
20260902091612 56 234 0.0 0.0 0.00 0.00 0.00 33 1010.6
20260902090056 56 234 0.0 0.9 0.00 0.00 0.00 35 1010.6
20260902084554 56 180 0.0 1.7 0.00 0.00 0.00 38 1010.9
20260902083055 56 180 0.0 0.0 0.00 0.00 0.00 42 1010.9
20260902081550 57 180 0.0 0.9 0.00 0.00 0.00 46 1011.0
20260902080050 57 180 0.0 2.6 0.00 0.00 0.00 48 1011.1
20260902074546 58 136 0.0 4.3 0.00 0.00 0.00 48 1011.0
20260902073048 58 215 0.0 2.6 0.00 0.00 0.00 49 1011.0
20260902071548 58 205 0.0 4.3 0.00 0.00 0.00 50 1011.2
20260902070047 58 286 0.0 4.3 0.00 0.00 0.00 47 1011.3
20260902064541 58 203 0.0 3.5 0.00 0.00 0.00 45 1011.6
20260902063034 59 203 0.0 4.3 0.00 0.00 0.00 45 1011.7
20260902061527 59 124 0.0 4.3 0.00 0.00 0.00 45 1011.7
20260902060023 59 213 0.9 5.2 0.00 0.00 0.00 45 1011.9
20260902054517 60 155 0.0 4.3 0.00 0.00 0.00 46 1012.0
20260902053015 60 192 0.9 4.3 0.00 0.00 0.00 46 1012.0
20260902051511 60 252 0.0 3.5 0.00 0.00 0.00 46 1012.1
20260902050008 60 210 0.0 0.9 0.00 0.00 0.00 47 1012.0
20260902044600 60 209 0.0 2.6 0.00 0.00 0.00 47 1012.1
20260902043100 60 179 0.0 2.6 0.00 0.00 0.00 48 1012.0
20260902041558 60 178 0.0 1.7 0.00 0.00 0.00 49 1011.9
20260902040050 60 178 0.0 0.0 0.00 0.00 0.00 49 1012.0
20260902034543 60 178 0.9 2.6 0.00 0.00 0.00 50 1011.9
20260902033039 60 178 0.0 3.5 0.00 0.00 0.00 51 1011.9
20260902031534 60 178 0.0 1.7 0.00 0.00 0.00 52 1011.9
20260902030030 60 257 0.0 1.7 0.00 0.00 0.00 54 1011.8
20260902024525 61 275 0.0 2.6 0.00 0.00 0.00 55 1011.7
20260902023020 61 291 0.0 3.5 0.00 0.00 0.00 55 1011.7
20260902021516 61 221 0.0 5.2 0.00 0.00 0.00 55 1011.7
20260902020019 61 216 1.7 4.3 0.00 0.00 0.00 55 1011.8
20260902014509 61 194 1.7 5.2 0.00 0.00 0.00 54 1011.6
20260902013008 60 184 0.9 2.6 0.00 0.00 0.00 52 1011.6
20260902011603 60 292 0.0 5.2 0.00 0.00 0.00 53 1011.6
20260902010054 61 248 0.9 9.6 0.00 0.00 0.00 56 1011.6
20260902004550 62 191 1.7 6.1 0.00 0.00 0.00 60 1011.6
20260902003046 63 288 0.9 6.1 0.00 0.00 0.00 61 1011.3
20260902001541 64 266 0.9 11.3 0.00 0.00 0.00 61 1011.2
20260902000138 65 284 0.9 3.5 0.00 0.00 0.00 59 1011.0
20260901234531 65 316 0.0 6.1 0.00 0.00 0.00 59 1010.9
20260901233027 65 284 1.7 7.0 0.00 0.00 0.00 58 1011.1
20260901231523 65 267 1.7 3.5 0.00 0.00 0.00 58 1011.1
20260901230029 65 194 0.9 4.3 0.00 0.00 0.00 59 1011.1
20260901224519 65 221 1.7 6.1 0.00 0.00 0.00 58 1011.2
20260901223010 65 181 0.9 4.3 0.00 0.00 0.00 59 1011.1
20260901221509 65 293 1.7 6.1 0.00 0.00 0.00 58 1011.2
20260901220101 65 293 1.7 5.2 0.00 0.00 0.00 58 1011.2
20260901214600 65 287 1.7 4.3 0.00 0.00 0.00 58 1011.1
20260901213053 65 239 0.9 5.2 0.00 0.00 0.00 58 1011.0
20260901211548 65 293 0.9 6.1 0.00 0.00 0.00 58 1011.1
20260901210056 65 290 0.9 6.1 0.00 0.00 0.00 58 1011.0
20260901204542 64 169 1.7 5.2 0.00 0.00 0.00 58 1011.0
20260901203045 65 298 1.7 5.2 0.00 0.00 0.00 57 1011.1
20260901201529 66 79 1.7 7.0 0.00 0.00 0.00 56 1011.2
20260901200027 65 200 1.7 6.1 0.00 0.00 0.00 56 1011.1
20260901194521 64 171 1.7 4.3 0.00 0.00 0.00 56 1011.3
20260901193016 63 190 1.7 7.8 0.00 0.00 0.00 55 1011.5
20260901191514 63 265 0.9 4.3 0.00 0.00 0.00 54 1011.6
20260901190009 63 281 0.9 2.6 0.00 0.00 0.00 53 1011.7
20260901184502 63 217 1.7 4.3 0.00 0.00 0.00 53 1011.8
20260901183059 62 239 1.7 7.8 0.00 0.00 0.00 48 1011.9
20260901181555 62 207 1.7 8.7 0.00 0.00 0.00 44 1012.0
20260901180050 61 15 0.0 3.5 0.00 0.00 0.00 37 1012.1
20260901174549 61 201 0.9 5.2 0.00 0.00 0.00 35 1012.0
20260901173042 60 303 0.9 3.5 0.00 0.00 0.00 10 1012.0
20260901171541 59 215 1.7 6.1 0.00 0.00 0.00 14 1011.9
20260901170032 59 215 1.7 5.2 0.00 0.00 0.00 17 1012.0
20260901164533 59 188 0.0 3.5 0.00 0.00 0.00 7 1011.9